,,,PA_Meas_PMT16A,,PR_Meas_QMR101_102,,RH_Meas_QMH101,,SR_Meas_QMS101,,TA_Meas_QMH101,,GenWind,,GenWind,
date,time,status,PA,status,PR,status,RH,status,SR,status,TA,status,DirAvg,status,SpdAvg,
2012-09-02, 00:00:04,VALID,1001.92,VALID,0,VALID,82.2397,VALID,0,VALID,21.458,VALID,4,VALID,0.53125,
2012-09-02, 00:01:04,VALID,1001.9,VALID,0,VALID,82.5983,VALID,0,VALID,21.4368,VALID,4,VALID,0.532031,
2012-09-02, 00:02:04,VALID,1001.88,VALID,0,VALID,82.6974,VALID,0,VALID,21.458,VALID,4,VALID,0.585938,
2012-09-02, 00:03:04,VALID,1001.9,VALID,0,VALID,82.7509,VALID,0,VALID,21.458,VALID,4,VALID,0.54375,
2012-09-02, 00:04:04,VALID,1001.92,VALID,0,VALID,82.7127,VALID,0,VALID,21.4775,VALID,4,VALID,0.443359,
2012-09-02, 00:05:04,VALID,1001.93,VALID,0,VALID,82.6898,VALID,0,VALID,21.4775,VALID,4,VALID,0.285937,
2012-09-02, 00:06:04,VALID,1001.9,VALID,0,VALID,82.522,VALID,0,VALID,21.4563,VALID,4,VALID,0.352734,
2012-09-02, 00:07:04,VALID,1001.9,VALID,0,VALID,82.7738,VALID,0,VALID,21.4791,VALID,4,VALID,0.328906,
2012-09-02, 00:08:04,VALID,1001.88,VALID,0,VALID,82.6898,VALID,0,VALID,21.4596,VALID,4,VALID,0.136719,
2012-09-02, 00:09:04,VALID,1001.85,VALID,0,VALID,82.9798,VALID,0,VALID,21.4401,VALID,4,VALID,0.0339844,
2012-09-02, 00:10:04,VALID,1001.86,VALID,0,VALID,83.4146,VALID,0,VALID,21.4206,VALID,16,VALID,0.377734,
2012-09-02, 00:11:04,VALID,1001.83,VALID,0,VALID,83.6893,VALID,0,VALID,21.4011,VALID,16,VALID,0.455078,
2012-09-02, 00:12:04,VALID,1001.82,VALID,0,VALID,83.6512,VALID,0,VALID,21.3816,VALID,30,VALID,0.317187,
2012-09-02, 00:13:04,VALID,1001.84,VALID,0,VALID,83.819,VALID,0,VALID,21.341,VALID,30,VALID,0.228516,
2012-09-02, 00:14:04,VALID,1001.86,VALID,0,VALID,84.1013,VALID,0,VALID,21.3231,VALID,30,VALID,0.280078,
2012-09-02, 00:15:04,VALID,1001.84,VALID,0,VALID,84.2463,VALID,0,VALID,21.2646,VALID,30,VALID,0.096875,
2012-09-02, 00:16:04,VALID,1001.86,VALID,0,VALID,84.3531,VALID,0,VALID,21.2061,VALID,30,VALID,0.242578,
2012-09-02, 00:17:04,VALID,1001.88,VALID,0,VALID,85.0245,VALID,0,VALID,21.1655,VALID,30,VALID,0.159766,
2012-09-02, 00:18:04,VALID,1001.86,VALID,0,VALID,86.1613,VALID,0,VALID,21.1476,VALID,30,VALID,0.278125,
2012-09-02, 00:19:04,VALID,1001.88,VALID,0,VALID,86.8861,VALID,0,VALID,21.0875,VALID,36,VALID,0.416016,
2012-09-02, 00:20:04,VALID,1001.85,VALID,0,VALID,87.1913,VALID,0,VALID,21.1086,VALID,68,VALID,0.640625,
2012-09-02, 00:21:04,VALID,1001.86,VALID,0,VALID,87.3592,VALID,0,VALID,21.0875,VALID,68,VALID,0.532031,
2012-09-02, 00:22:04,VALID,1001.86,VALID,0,VALID,87.0692,VALID,0,VALID,21.0696,VALID,68,VALID,0.454688,
2012-09-02, 00:23:04,VALID,1001.85,VALID,0,VALID,87.1684,VALID,0,VALID,21.0891,VALID,72,VALID,0.659375,
2012-09-02, 00:24:04,VALID,1001.8,VALID,0,VALID,87.382,VALID,0,VALID,21.1086,VALID,72,VALID,0.788281,
2012-09-02, 00:25:04,VALID,1001.79,VALID,0,VALID,87.5346,VALID,0,VALID,21.1476,VALID,79,VALID,0.807813,
2012-09-02, 00:26:04,VALID,1001.78,VALID,0,VALID,87.7635,VALID,0,VALID,21.1866,VALID,83,VALID,0.812891,
2012-09-02, 00:27:04,VALID,1001.77,VALID,0,VALID,87.733,VALID,0,VALID,21.2061,VALID,83,VALID,0.770312,
2012-09-02, 00:28:04,VALID,1001.78,VALID,0,VALID,87.588,VALID,0,VALID,21.2451,VALID,83,VALID,0.879687,
2012-09-02, 00:29:04,VALID,1001.78,VALID,0,VALID,87.176,VALID,0,VALID,21.2841,VALID,83,VALID,0.667969,
2012-09-02, 00:30:04,VALID,1001.77,VALID,0,VALID,86.23,VALID,0,VALID,21.3231,VALID,83,VALID,0.578516,
2012-09-02, 00:31:04,VALID,1001.77,VALID,0,VALID,84.5743,VALID,0,VALID,21.3426,VALID,83,VALID,0.539844,
2012-09-02, 00:32:04,VALID,1001.76,VALID,0,VALID,84.231,VALID,0,VALID,21.3816,VALID,83,VALID,0.532422,
2012-09-02, 00:33:04,VALID,1001.76,VALID,0,VALID,84.4141,VALID,0,VALID,21.4206,VALID,83,VALID,0.458984,
2012-09-02, 00:34:04,VALID,1001.77,VALID,0,VALID,84.6354,VALID,0,VALID,21.3995,VALID,83,VALID,0.469922,
2012-09-02, 00:35:04,VALID,1001.76,VALID,0,VALID,84.91,VALID,0,VALID,21.4401,VALID,83,VALID,0.465625,
2012-09-02, 00:36:04,VALID,1001.77,VALID,0,VALID,84.0555,VALID,0,VALID,21.4401,VALID,83,VALID,0.505078,
2012-09-02, 00:37:04,VALID,1001.76,VALID,0,VALID,83.0484,VALID,0,VALID,21.4401,VALID,83,VALID,0.401953,
2012-09-02, 00:38:04,VALID,1001.76,VALID,0,VALID,83.1018,VALID,0,VALID,21.4401,VALID,83,VALID,0.326562,
2012-09-02, 00:39:04,VALID,1001.74,VALID,0,VALID,83.1781,VALID,0,VALID,21.4596,VALID,83,VALID,0.348828,
2012-09-02, 00:40:04,VALID,1001.78,VALID,0,VALID,82.4838,VALID,0,VALID,21.4401,VALID,83,VALID,0.236719,
2012-09-02, 00:41:04,VALID,1001.74,VALID,0,VALID,82.4838,VALID,0,VALID,21.4206,VALID,83,VALID,0,
2012-09-02, 00:42:04,VALID,1001.76,VALID,0,VALID,82.4915,VALID,0,VALID,21.3621,VALID,83,VALID,0.0839844,
2012-09-02, 00:43:04,VALID,1001.77,VALID,0,VALID,82.7738,VALID,0,VALID,21.3231,VALID,83,VALID,0.0136719,
2012-09-02, 00:44:04,VALID,1001.75,VALID,0,VALID,83.2086,VALID,0,VALID,21.2646,VALID,82,VALID,0.592969,
2012-09-02, 00:45:04,VALID,1001.75,VALID,0,VALID,84.1623,VALID,0,VALID,21.1866,VALID,82,VALID,0.392969,
2012-09-02, 00:46:04,VALID,1001.71,VALID,0,VALID,84.6277,VALID,0,VALID,21.1281,VALID,82,VALID,0.512109,
2012-09-02, 00:47:04,VALID,1001.7,VALID,0,VALID,86.2376,VALID,0,VALID,21.0907,VALID,82,VALID,0.562891,
2012-09-02, 00:48:04,VALID,1001.69,VALID,0,VALID,87.5728,VALID,0,VALID,21.0501,VALID,82,VALID,0.398047,
2012-09-02, 00:49:04,VALID,1001.63,VALID,0,VALID,87.939,VALID,0,VALID,21.0306,VALID,82,VALID,0.148438,
2012-09-02, 00:50:04,VALID,1001.65,VALID,0,VALID,88.0153,VALID,0,VALID,20.9721,VALID,82,VALID,0,
2012-09-02, 00:51:04,VALID,1001.6,VALID,0,VALID,88.3968,VALID,0,VALID,20.9526,VALID,82,VALID,0,
2012-09-02, 00:52:04,VALID,1001.58,VALID,0,VALID,88.8088,VALID,0,VALID,20.912,VALID,82,VALID,0.166016,
2012-09-02, 00:53:04,VALID,1001.6,VALID,0,VALID,89.1216,VALID,0,VALID,20.912,VALID,82,VALID,0.448047,
2012-09-02, 00:54:04,VALID,1001.58,VALID,0,VALID,89.3734,VALID,0,VALID,20.873,VALID,65,VALID,0.605859,
2012-09-02, 00:55:04,VALID,1001.59,VALID,0,VALID,89.3734,VALID,0,VALID,20.8535,VALID,351,VALID,0.578516,
2012-09-02, 00:56:04,VALID,1001.55,VALID,0,VALID,89.3581,VALID,0,VALID,20.8535,VALID,351,VALID,0.479688,
2012-09-02, 00:57:04,VALID,1001.55,VALID,0,VALID,89.4191,VALID,0,VALID,20.873,VALID,351,VALID,0.568359,
2012-09-02, 00:58:04,VALID,1001.56,VALID,0,VALID,89.3734,VALID,0,VALID,20.873,VALID,351,VALID,0.345313,
2012-09-02, 00:59:04,VALID,1001.54,VALID,0,VALID,89.4039,VALID,0,VALID,20.8925,VALID,351,VALID,0.391406,
2012-09-02, 01:00:04,VALID,1001.52,VALID,0,VALID,89.4115,VALID,0,VALID,20.873,VALID,351,VALID,0.416406,
2012-09-02, 01:01:04,VALID,1001.54,VALID,0,VALID,89.3886,VALID,0,VALID,20.8535,VALID,351,VALID,0.266016,
2012-09-02, 01:02:04,VALID,1001.57,VALID,0,VALID,89.4497,VALID,0,VALID,20.8145,VALID,351,VALID,0.467187,
2012-09-02, 01:03:04,VALID,1001.56,VALID,0,VALID,89.6175,VALID,0,VALID,20.7771,VALID,351,VALID,0.588672,
2012-09-02, 01:04:04,VALID,1001.56,VALID,0,VALID,90.0753,VALID,0,VALID,20.7171,VALID,351,VALID,0.810547,
2012-09-02, 01:05:04,VALID,1001.55,VALID,0,VALID,90.472,VALID,0,VALID,20.6781,VALID,351,VALID,0.602734,
2012-09-02, 01:06:04,VALID,1001.57,VALID,0,VALID,90.5407,VALID,0.104696,VALID,20.6781,VALID,351,VALID,0.524219,
2012-09-02, 01:07:04,VALID,1001.56,VALID,0,VALID,90.7314,VALID,0,VALID,20.6586,VALID,351,VALID,0.226563,
2012-09-02, 01:08:04,VALID,1001.52,VALID,0,VALID,90.8001,VALID,0,VALID,20.6586,VALID,351,VALID,0.358984,
2012-09-02, 01:09:04,VALID,1001.49,VALID,0,VALID,90.9222,VALID,0,VALID,20.6391,VALID,351,VALID,0.460156,
2012-09-02, 01:10:04,VALID,1001.48,VALID,0,VALID,91.0137,VALID,0.104696,VALID,20.6391,VALID,351,VALID,0.741406,
2012-09-02, 01:11:04,VALID,1001.48,VALID,0,VALID,91.2808,VALID,0,VALID,20.6391,VALID,60,VALID,0.652344,
2012-09-02, 01:12:04,VALID,1001.5,VALID,0,VALID,91.4028,VALID,0,VALID,20.6406,VALID,60,VALID,0.528906,
2012-09-02, 01:13:04,VALID,1001.5,VALID,0,VALID,91.5097,VALID,0,VALID,20.6001,VALID,60,VALID,0.494141,
2012-09-02, 01:14:04,VALID,1001.51,VALID,0,VALID,91.647,VALID,0,VALID,20.5806,VALID,60,VALID,0.436719,
2012-09-02, 01:15:04,VALID,1001.47,VALID,0,VALID,91.6623,VALID,0,VALID,20.5806,VALID,60,VALID,0.517187,
2012-09-02, 01:16:04,VALID,1001.45,VALID,0,VALID,91.7767,VALID,0,VALID,20.5627,VALID,60,VALID,0.65,
2012-09-02, 01:17:04,VALID,1001.46,VALID,0,VALID,92.0666,VALID,0,VALID,20.5416,VALID,55,VALID,0.794141,
2012-09-02, 01:18:04,VALID,1001.43,VALID,0,VALID,92.204,VALID,0,VALID,20.5416,VALID,55,VALID,0.710938,
2012-09-02, 01:19:04,VALID,1001.41,VALID,0,VALID,92.2192,VALID,0,VALID,20.5822,VALID,55,VALID,0.594531,
2012-09-02, 01:20:04,VALID,1001.42,VALID,0,VALID,92.2268,VALID,0,VALID,20.5822,VALID,55,VALID,0.521094,
2012-09-02, 01:21:04,VALID,1001.4,VALID,0,VALID,92.4481,VALID,0,VALID,20.5806,VALID,55,VALID,0.526172,
2012-09-02, 01:22:04,VALID,1001.37,VALID,0,VALID,92.4176,VALID,0,VALID,20.5806,VALID,55,VALID,0.54375,
2012-09-02, 01:23:04,VALID,1001.39,VALID,0,VALID,92.4328,VALID,0,VALID,20.5611,VALID,55,VALID,0.605078,
2012-09-02, 01:24:04,VALID,1001.37,VALID,0,VALID,92.6694,VALID,0,VALID,20.6016,VALID,55,VALID,0.469531,
2012-09-02, 01:25:04,VALID,1001.36,VALID,0,VALID,92.3566,VALID,0,VALID,20.5822,VALID,55,VALID,0.430078,
2012-09-02, 01:26:04,VALID,1001.38,VALID,0,VALID,92.265,VALID,0,VALID,20.5416,VALID,55,VALID,0.401563,
2012-09-02, 01:27:04,VALID,1001.37,VALID,0,VALID,92.3337,VALID,0,VALID,20.5627,VALID,55,VALID,0.141406,
2012-09-02, 01:28:04,VALID,1001.37,VALID,0,VALID,92.2879,VALID,0,VALID,20.5221,VALID,55,VALID,0,
2012-09-02, 01:29:04,VALID,1001.34,VALID,0,VALID,92.265,VALID,0,VALID,20.5026,VALID,55,VALID,0,
2012-09-02, 01:30:04,VALID,1001.34,VALID,0,VALID,92.3489,VALID,0,VALID,20.5026,VALID,55,VALID,0.0078125,
2012-09-02, 01:31:04,VALID,1001.36,VALID,0,VALID,92.6999,VALID,0,VALID,20.5416,VALID,55,VALID,0.266016,
2012-09-02, 01:32:04,VALID,1001.32,VALID,0,VALID,92.7609,VALID,0.104696,VALID,20.5416,VALID,55,VALID,0.46875,
2012-09-02, 01:33:04,VALID,1001.32,VALID,0,VALID,92.677,VALID,0,VALID,20.5611,VALID,55,VALID,0.496875,
2012-09-02, 01:34:04,VALID,1001.31,VALID,0,VALID,92.5702,VALID,0,VALID,20.5806,VALID,55,VALID,0.540625,
2012-09-02, 01:35:04,VALID,1001.28,VALID,0,VALID,92.3413,VALID,0,VALID,20.6211,VALID,55,VALID,0.516016,
2012-09-02, 01:36:04,VALID,1001.27,VALID,0,VALID,92.0361,VALID,0,VALID,20.6001,VALID,55,VALID,0.485938,
2012-09-02, 01:37:04,VALID,1001.26,VALID,0,VALID,91.4791,VALID,0,VALID,20.5806,VALID,55,VALID,0.355078,
2012-09-02, 01:38:04,VALID,1001.28,VALID,0,VALID,90.8459,VALID,0,VALID,20.6001,VALID,55,VALID,0.288672,
2012-09-02, 01:39:04,VALID,1001.24,VALID,0,VALID,90.4339,VALID,0,VALID,20.6211,VALID,55,VALID,0.0933594,
2012-09-02, 01:40:04,VALID,1001.25,VALID,0,VALID,90.5178,VALID,0,VALID,20.6391,VALID,55,VALID,0.121875,
2012-09-02, 01:41:04,VALID,1001.23,VALID,0,VALID,90.678,VALID,0,VALID,20.6586,VALID,55,VALID,0.167969,
2012-09-02, 01:42:04,VALID,1001.23,VALID,0,VALID,90.8383,VALID,0,VALID,20.6586,VALID,55,VALID,0.222266,
2012-09-02, 01:43:04,VALID,1001.2,VALID,0,VALID,91.029,VALID,0,VALID,20.6781,VALID,55,VALID,0.224609,
2012-09-02, 01:44:04,VALID,1001.23,VALID,0,VALID,91.1968,VALID,0,VALID,20.6781,VALID,55,VALID,0,
2012-09-02, 01:45:04,VALID,1001.23,VALID,0,VALID,91.4257,VALID,0,VALID,20.6991,VALID,55,VALID,0.139453,
2012-09-02, 01:46:04,VALID,1001.19,VALID,0,VALID,91.5707,VALID,0,VALID,20.7186,VALID,55,VALID,0.123438,
2012-09-02, 01:47:04,VALID,1001.19,VALID,0,VALID,91.7691,VALID,0,VALID,20.6991,VALID,55,VALID,0.165625,
2012-09-02, 01:48:04,VALID,1001.16,VALID,0,VALID,91.9903,VALID,0,VALID,20.6781,VALID,55,VALID,0.449609,
2012-09-02, 01:49:04,VALID,1001.13,VALID,0,VALID,91.998,VALID,0,VALID,20.6586,VALID,55,VALID,0.416406,
2012-09-02, 01:50:04,VALID,1001.13,VALID,0,VALID,92.0743,VALID,0,VALID,20.6601,VALID,55,VALID,0.376172,
2012-09-02, 01:51:04,VALID,1001.11,VALID,0,VALID,92.12,VALID,0,VALID,20.6001,VALID,55,VALID,0.463281,
2012-09-02, 01:52:04,VALID,1001.07,VALID,0,VALID,92.12,VALID,0,VALID,20.6032,VALID,55,VALID,0.432031,
2012-09-02, 01:53:04,VALID,1001.1,VALID,0,VALID,92.3642,VALID,0,VALID,20.6032,VALID,55,VALID,0.374219,
2012-09-02, 01:54:04,VALID,1001.07,VALID,0,VALID,92.5702,VALID,0,VALID,20.5822,VALID,55,VALID,0.476953,
2012-09-02, 01:55:04,VALID,1001.06,VALID,0,VALID,91.9751,VALID,0,VALID,20.5837,VALID,55,VALID,0.478516,
2012-09-02, 01:56:04,VALID,1001.07,VALID,0,VALID,91.1053,VALID,0,VALID,20.5432,VALID,55,VALID,0.560547,
2012-09-02, 01:57:04,VALID,1001.1,VALID,0,VALID,90.6017,VALID,0,VALID,20.5627,VALID,55,VALID,0.68125,
2012-09-02, 01:58:04,VALID,1001.1,VALID,0,VALID,90.6246,VALID,0,VALID,20.5627,VALID,55,VALID,0.677734,
2012-09-02, 01:59:04,VALID,1001.1,VALID,0,VALID,90.5865,VALID,0,VALID,20.5432,VALID,55,VALID,0.630078,
2012-09-02, 02:00:04,VALID,1001.12,VALID,0,VALID,90.9985,VALID,0,VALID,20.5627,VALID,55,VALID,0.535937,
2012-09-02, 02:01:04,VALID,1001.1,VALID,0,VALID,91.4334,VALID,0,VALID,20.5627,VALID,55,VALID,0.370313,
2012-09-02, 02:02:04,VALID,1001.03,VALID,0,VALID,91.647,VALID,0,VALID,20.6016,VALID,55,VALID,0.560938,
2012-09-02, 02:03:04,VALID,1001.06,VALID,0,VALID,91.8225,VALID,0,VALID,20.6601,VALID,55,VALID,0.648438,
2012-09-02, 02:04:04,VALID,1001.05,VALID,0,VALID,92.0666,VALID,0,VALID,20.7381,VALID,78,VALID,0.797266,
2012-09-02, 02:05:04,VALID,1001.03,VALID,0,VALID,92.1429,VALID,0,VALID,20.7771,VALID,78,VALID,0.719922,
2012-09-02, 02:06:04,VALID,1001.03,VALID,0,VALID,92.1811,VALID,0,VALID,20.7966,VALID,78,VALID,0.596094,
2012-09-02, 02:07:04,VALID,1001.02,VALID,0,VALID,92.1582,VALID,0,VALID,20.8161,VALID,78,VALID,0.371875,
2012-09-02, 02:08:04,VALID,1001.02,VALID,0,VALID,92.0895,VALID,0,VALID,20.8161,VALID,78,VALID,0.2125,
2012-09-02, 02:09:04,VALID,1001.03,VALID,0,VALID,92.0132,VALID,0,VALID,20.7771,VALID,78,VALID,0,
2012-09-02, 02:10:04,VALID,1001.06,VALID,0,VALID,91.9522,VALID,0,VALID,20.7381,VALID,78,VALID,0,
2012-09-02, 02:11:04,VALID,1001.09,VALID,0,VALID,91.9598,VALID,0,VALID,20.7186,VALID,78,VALID,0,
2012-09-02, 02:12:04,VALID,1001.07,VALID,0,VALID,92.0132,VALID,0,VALID,20.6991,VALID,78,VALID,0,
2012-09-02, 02:13:04,VALID,1001.06,VALID,0,VALID,92.2421,VALID,0,VALID,20.6991,VALID,78,VALID,0,
2012-09-02, 02:14:04,VALID,1001.07,VALID,0,VALID,92.4405,VALID,0,VALID,20.6991,VALID,78,VALID,0.407813,
2012-09-02, 02:15:04,VALID,1001.06,VALID,0,VALID,92.3947,VALID,0,VALID,20.6601,VALID,78,VALID,0.433984,
2012-09-02, 02:16:04,VALID,1001.05,VALID,0,VALID,92.1963,VALID,0,VALID,20.6406,VALID,78,VALID,0.384766,
2012-09-02, 02:17:04,VALID,1001.05,VALID,0,VALID,92.1277,VALID,0,VALID,20.6406,VALID,78,VALID,0.244531,
2012-09-02, 02:18:04,VALID,1001.03,VALID,0,VALID,91.9751,VALID,0,VALID,20.6001,VALID,78,VALID,0.275781,
2012-09-02, 02:19:04,VALID,1001.04,VALID,0,VALID,91.7462,VALID,0,VALID,20.6016,VALID,78,VALID,0.211328,
2012-09-02, 02:20:04,VALID,1001.04,VALID,0,VALID,91.7691,VALID,0,VALID,20.6016,VALID,78,VALID,0.155859,
2012-09-02, 02:21:04,VALID,1000.99,VALID,0,VALID,91.8835,VALID,0,VALID,20.6016,VALID,78,VALID,0.0222656,
2012-09-02, 02:22:04,VALID,1000.98,VALID,0,VALID,91.7996,VALID,0,VALID,20.6016,VALID,78,VALID,0.199219,
2012-09-02, 02:23:04,VALID,1000.94,VALID,0,VALID,91.4639,VALID,0,VALID,20.6016,VALID,78,VALID,0.0613281,
2012-09-02, 02:24:04,VALID,1000.93,VALID,0,VALID,91.1053,VALID,0,VALID,20.6211,VALID,78,VALID,0.0941406,
2012-09-02, 02:25:04,VALID,1000.9,VALID,0,VALID,90.5712,VALID,0,VALID,20.6406,VALID,78,VALID,0,
2012-09-02, 02:26:04,VALID,1000.87,VALID,0,VALID,90.1668,VALID,0,VALID,20.6601,VALID,78,VALID,0,
2012-09-02, 02:27:04,VALID,1000.86,VALID,0,VALID,89.9532,VALID,0,VALID,20.6796,VALID,78,VALID,0,
2012-09-02, 02:28:04,VALID,1000.83,VALID,0,VALID,90.3728,VALID,0,VALID,20.6991,VALID,78,VALID,0.174219,
2012-09-02, 02:29:04,VALID,1000.83,VALID,0,VALID,90.7543,VALID,0,VALID,20.7186,VALID,78,VALID,0,
2012-09-02, 02:30:04,VALID,1000.83,VALID,0,VALID,90.8535,VALID,0,VALID,20.6991,VALID,78,VALID,0,
2012-09-02, 02:31:04,VALID,1000.81,VALID,0,VALID,90.8306,VALID,0,VALID,20.6601,VALID,78,VALID,0,
2012-09-02, 02:32:04,VALID,1000.8,VALID,0,VALID,90.7925,VALID,0,VALID,20.6406,VALID,78,VALID,0,
2012-09-02, 02:33:04,VALID,1000.81,VALID,0,VALID,91.029,VALID,0,VALID,20.6196,VALID,78,VALID,0.123828,
2012-09-02, 02:34:04,VALID,1000.79,VALID,0,VALID,91.4181,VALID,0,VALID,20.5822,VALID,78,VALID,0.539063,
2012-09-02, 02:35:04,VALID,1000.83,VALID,0,VALID,91.8683,VALID,0,VALID,20.5432,VALID,78,VALID,0.414453,
2012-09-02, 02:36:04,VALID,1000.82,VALID,0,VALID,92.0895,VALID,0,VALID,20.5237,VALID,78,VALID,0.442187,
2012-09-02, 02:37:04,VALID,1000.78,VALID,0,VALID,92.1582,VALID,0,VALID,20.5237,VALID,78,VALID,0.319922,
2012-09-02, 02:38:04,VALID,1000.79,VALID,0,VALID,92.2192,VALID,0,VALID,20.5042,VALID,78,VALID,0.364844,
2012-09-02, 02:39:04,VALID,1000.77,VALID,0,VALID,92.2421,VALID,0,VALID,20.4847,VALID,78,VALID,0.205859,
2012-09-02, 02:40:04,VALID,1000.75,VALID,0,VALID,92.2803,VALID,0,VALID,20.4652,VALID,78,VALID,0.178516,
2012-09-02, 02:41:04,VALID,1000.74,VALID,0,VALID,92.3184,VALID,0,VALID,20.4652,VALID,78,VALID,0.187109,
2012-09-02, 02:42:04,VALID,1000.72,VALID,0,VALID,92.3642,VALID,0,VALID,20.4457,VALID,78,VALID,0.109375,
2012-09-02, 02:43:04,VALID,1000.7,VALID,0,VALID,92.3718,VALID,0,VALID,20.4457,VALID,78,VALID,0,
2012-09-02, 02:44:04,VALID,1000.75,VALID,0,VALID,92.3718,VALID,0,VALID,20.4067,VALID,78,VALID,0,
2012-09-02, 02:45:04,VALID,1000.73,VALID,0,VALID,92.4634,VALID,0,VALID,20.3872,VALID,78,VALID,0,
2012-09-02, 02:46:04,VALID,1000.73,VALID,0,VALID,92.6541,VALID,0,VALID,20.4067,VALID,78,VALID,0,
2012-09-02, 02:47:04,VALID,1000.75,VALID,0,VALID,92.7914,VALID,0,VALID,20.4067,VALID,78,VALID,0,
2012-09-02, 02:48:04,VALID,1000.73,VALID,0,VALID,92.8448,VALID,0,VALID,20.4457,VALID,78,VALID,0,
2012-09-02, 02:49:04,VALID,1000.72,VALID,0,VALID,92.8906,VALID,0,VALID,20.4847,VALID,78,VALID,0.280078,
2012-09-02, 02:50:04,VALID,1000.74,VALID,0,VALID,92.9211,VALID,0,VALID,20.5237,VALID,78,VALID,0.571484,
2012-09-02, 02:51:04,VALID,1000.73,VALID,0,VALID,91.3189,VALID,0,VALID,20.5432,VALID,106,VALID,1.02383,
2012-09-02, 02:52:04,VALID,1000.71,VALID,0,VALID,87.9009,VALID,0,VALID,20.7966,VALID,125,VALID,1.12031,
2012-09-02, 02:53:04,VALID,1000.71,VALID,0,VALID,85.4136,VALID,0,VALID,21.0306,VALID,125,VALID,1.16797,
2012-09-02, 02:54:04,VALID,1000.7,VALID,0,VALID,84.3989,VALID,0,VALID,21.2256,VALID,127,VALID,1.30469,
2012-09-02, 02:55:04,VALID,1000.72,VALID,0,VALID,84.292,VALID,0,VALID,21.302,VALID,141,VALID,1.79727,
2012-09-02, 02:56:04,VALID,1000.74,VALID,0,VALID,84.4065,VALID,0,VALID,21.2841,VALID,156,VALID,1.35742,
2012-09-02, 02:57:04,VALID,1000.73,VALID,0,VALID,84.4828,VALID,0,VALID,21.1655,VALID,163,VALID,1.45703,
2012-09-02, 02:58:04,VALID,1000.76,VALID,0,VALID,84.2157,VALID,0,VALID,21.1671,VALID,186,VALID,1.58203,
2012-09-02, 02:59:04,VALID,1000.79,VALID,0,VALID,83.7503,VALID,0,VALID,21.2646,VALID,191,VALID,1.6332,
2012-09-02, 03:00:04,VALID,1000.79,VALID,0,VALID,83.0789,VALID,0,VALID,21.3426,VALID,192,VALID,1.91797,
2012-09-02, 03:01:04,VALID,1000.82,VALID,0,VALID,82.8577,VALID,0,VALID,21.4011,VALID,198,VALID,1.76289,
2012-09-02, 03:02:04,VALID,1000.83,VALID,0,VALID,82.522,VALID,0,VALID,21.4596,VALID,191,VALID,1.58672,
2012-09-02, 03:03:04,VALID,1000.86,VALID,0,VALID,82.3923,VALID,0,VALID,21.4775,VALID,185,VALID,1.38477,
2012-09-02, 03:04:04,VALID,1000.85,VALID,0,VALID,82.2244,VALID,0,VALID,21.5181,VALID,192,VALID,1.17813,
2012-09-02, 03:05:04,VALID,1000.82,VALID,0,VALID,81.9498,VALID,0,VALID,21.5571,VALID,180,VALID,1.22852,
2012-09-02, 03:06:04,VALID,1000.83,VALID,0,VALID,81.3699,VALID,0,VALID,21.5977,VALID,180,VALID,1.16211,
2012-09-02, 03:07:04,VALID,1000.81,VALID,0,VALID,81.2555,VALID,0,VALID,21.6351,VALID,180,VALID,0.884766,
2012-09-02, 03:08:04,VALID,1000.78,VALID,0,VALID,81.3394,VALID,0,VALID,21.6335,VALID,180,VALID,0.7625,
2012-09-02, 03:09:04,VALID,1000.77,VALID,0,VALID,80.8435,VALID,0,VALID,21.653,VALID,180,VALID,0.510938,
2012-09-02, 03:10:04,VALID,1000.74,VALID,0,VALID,80.9808,VALID,0,VALID,21.653,VALID,180,VALID,0.327344,
2012-09-02, 03:11:04,VALID,1000.73,VALID,0,VALID,81.9879,VALID,0,VALID,21.6741,VALID,170,VALID,0.312891,
2012-09-02, 03:12:04,VALID,1000.72,VALID,0,VALID,82.4686,VALID,0,VALID,21.6351,VALID,170,VALID,0.41875,
2012-09-02, 03:13:04,VALID,1000.69,VALID,0,VALID,83.1857,VALID,0,VALID,21.4775,VALID,170,VALID,0.671484,
2012-09-02, 03:14:04,VALID,1000.65,VALID,0,VALID,83.6588,VALID,0,VALID,21.3621,VALID,170,VALID,0.806641,
2012-09-02, 03:15:04,VALID,1000.68,VALID,0,VALID,84.3073,VALID,0,VALID,21.2451,VALID,170,VALID,0.896875,
2012-09-02, 03:16:04,VALID,1000.65,VALID,0,VALID,84.7727,VALID,0,VALID,21.1476,VALID,170,VALID,0.954297,
2012-09-02, 03:17:04,VALID,1000.63,VALID,0,VALID,85.1237,VALID,0,VALID,21.0696,VALID,170,VALID,0.934375,
2012-09-02, 03:18:04,VALID,1000.63,VALID,0,VALID,85.3144,VALID,0,VALID,20.9705,VALID,170,VALID,1.01133,
2012-09-02, 03:19:04,VALID,1000.62,VALID,0,VALID,85.7569,VALID,0,VALID,20.8941,VALID,170,VALID,0.957422,
2012-09-02, 03:20:04,VALID,1000.61,VALID,0,VALID,85.9629,VALID,0,VALID,20.8551,VALID,359,VALID,0.983984,
2012-09-02, 03:21:04,VALID,1000.65,VALID,0,VALID,85.3602,VALID,0,VALID,20.8161,VALID,22,VALID,1.28164,
2012-09-02, 03:22:04,VALID,1000.6,VALID,0,VALID,84.231,VALID,0,VALID,20.9136,VALID,28,VALID,1.27813,
2012-09-02, 03:23:04,VALID,1000.65,VALID,0,VALID,83.4528,VALID,0,VALID,21.029,VALID,31,VALID,1.22539,
2012-09-02, 03:24:04,VALID,1000.64,VALID,0,VALID,83.1247,VALID,0,VALID,21.1476,VALID,33,VALID,0.948828,
2012-09-02, 03:25:04,VALID,1000.65,VALID,0,VALID,82.8958,VALID,0,VALID,21.146,VALID,33,VALID,0.955859,
2012-09-02, 03:26:04,VALID,1000.63,VALID,0,VALID,83.1934,VALID,0,VALID,21.107,VALID,33,VALID,1.05117,
2012-09-02, 03:27:04,VALID,1000.64,VALID,0,VALID,82.85,VALID,0,VALID,21.0306,VALID,31,VALID,1.13047,
2012-09-02, 03:28:04,VALID,1000.67,VALID,0,VALID,82.3465,VALID,0,VALID,20.951,VALID,31,VALID,1.06602,
2012-09-02, 03:29:04,VALID,1000.66,VALID,0,VALID,82.3846,VALID,0,VALID,20.9331,VALID,30,VALID,1.18086,
2012-09-02, 03:30:04,VALID,1000.66,VALID,0,VALID,82.2397,VALID,0,VALID,20.8925,VALID,28,VALID,1.21094,
2012-09-02, 03:31:04,VALID,1000.68,VALID,0,VALID,82.377,VALID,0,VALID,20.9331,VALID,28,VALID,1.14688,
2012-09-02, 03:32:04,VALID,1000.7,VALID,0,VALID,82.5601,VALID,0,VALID,20.9136,VALID,28,VALID,1.12578,
2012-09-02, 03:33:04,VALID,1000.71,VALID,0,VALID,82.7585,VALID,0,VALID,20.8535,VALID,25,VALID,0.726172,
2012-09-02, 03:34:04,VALID,1000.71,VALID,0,VALID,82.9874,VALID,0,VALID,20.8356,VALID,25,VALID,0.78125,
2012-09-02, 03:35:04,VALID,1000.71,VALID,0,VALID,83.4528,VALID,0,VALID,20.756,VALID,27,VALID,0.807422,
2012-09-02, 03:36:04,VALID,1000.73,VALID,0,VALID,84.0403,VALID,0,VALID,20.6976,VALID,39,VALID,0.878906,
2012-09-02, 03:37:04,VALID,1000.74,VALID,0,VALID,85.8714,VALID,0,VALID,20.6796,VALID,47,VALID,0.898047,
2012-09-02, 03:38:04,VALID,1000.72,VALID,0,VALID,87.7406,VALID,0,VALID,20.6796,VALID,47,VALID,0.751953,
2012-09-02, 03:39:04,VALID,1000.75,VALID,0,VALID,88.6943,VALID,0,VALID,20.6796,VALID,47,VALID,0.538281,
2012-09-02, 03:40:04,VALID,1000.72,VALID,0,VALID,89.0682,VALID,0,VALID,20.6211,VALID,47,VALID,0.646875,
2012-09-02, 03:41:04,VALID,1000.76,VALID,0,VALID,89.6786,VALID,0,VALID,20.5822,VALID,47,VALID,0.817187,
2012-09-02, 03:42:04,VALID,1000.71,VALID,0,VALID,90.4644,VALID,0,VALID,20.5627,VALID,47,VALID,0.602344,
2012-09-02, 03:43:04,VALID,1000.75,VALID,0,VALID,90.5712,VALID,0,VALID,20.5432,VALID,47,VALID,0.350391,
2012-09-02, 03:44:04,VALID,1000.72,VALID,0,VALID,90.4797,VALID,0,VALID,20.5042,VALID,47,VALID,0.266016,
2012-09-02, 03:45:04,VALID,1000.71,VALID,0,VALID,90.7085,VALID,0,VALID,20.4847,VALID,47,VALID,0.525391,
2012-09-02, 03:46:04,VALID,1000.69,VALID,0,VALID,91.0824,VALID,0,VALID,20.4652,VALID,47,VALID,0.509766,
2012-09-02, 03:47:04,VALID,1000.64,VALID,0,VALID,91.4028,VALID,0,VALID,20.4457,VALID,332,VALID,0.630469,